Tracking 31027 objects as of 19-Jul-2025
HD Live streaming from Space Station
objects crossing your sky now

CZ-6A DEB

Track CZ-6A DEB now!
10-day predictions


NORAD ID: 54341
Int'l Code: 2022-151CL
Perigee: 790.8 km
Apogee: 856.7 km
Inclination: 98.8 °
Period: 101.2 minutes
Semi major axis: 7194 km
RCS: Unknown
Launch date: November 11, 2022
Source: People's Republic of China (PRC)
Launch site: Taiyaun Space Center, China (TSC)

Note: This is SATELLITE DEBRIS
Your satellite tracking list
EUTE 33A (EB 3)
Track 1 satellite(s)




NASA's NSSDC Master Catalog

Two Line Element Set (TLE):
1 54341U 22151CL  25199.48203241  .00000781  00000-0  36548-3 0  9993
2 54341  98.7846 214.9912 0045799 226.1196 133.6195 14.22593254138456
Source of the keplerian elements: AFSPC